TimeEDT,TemperatureF,Dew PointF,Humidity,Sea Level PressureIn,VisibilityMPH,Wind Direction,Wind SpeedMPH,Gust SpeedMPH,PrecipitationIn,Events,Conditions,WindDirDegrees,DateUTC
12:54 AM,69.1,60.1,73,30.10,10.0,ESE,3.5,-,N/A,,Mostly Cloudy,110,2013-07-31 04:54:00
1:54 AM,69.1,61.0,75,30.09,10.0,Calm,Calm,-,N/A,,Overcast,0,2013-07-31 05:54:00
2:54 AM,69.1,61.0,75,30.08,10.0,East,3.5,-,N/A,,Overcast,100,2013-07-31 06:54:00
3:54 AM,69.1,60.1,73,30.07,10.0,SSE,6.9,-,N/A,,Overcast,160,2013-07-31 07:54:00
4:28 AM,69.8,60.8,73,30.08,10.0,South,9.2,-,N/A,,Overcast,170,2013-07-31 08:28:00
4:54 AM,66.9,62.1,84,30.06,8.0,South,5.8,-,N/A,,Overcast,180,2013-07-31 08:54:00
5:39 AM,66.2,62.6,88,30.06,4.0,SE,5.8,-,0.00,Rain,Light Rain,140,2013-07-31 09:39:00
5:44 AM,66.2,62.6,88,30.06,2.5,SE,5.8,-,0.00,Rain,Light Rain,140,2013-07-31 09:44:00
5:54 AM,66.0,64.0,93,30.05,2.0,SE,6.9,-,0.01,Rain,Light Rain,140,2013-07-31 09:54:00
6:11 AM,66.2,64.4,94,30.07,1.8,SSE,5.8,-,0.01,Rain,Light Rain,150,2013-07-31 10:11:00
6:18 AM,66.2,64.4,94,30.07,2.5,SSE,5.8,-,0.01,Rain,Light Rain,150,2013-07-31 10:18:00
6:21 AM,66.2,64.4,94,30.07,3.0,SSE,6.9,-,0.01,Rain,Light Rain,150,2013-07-31 10:21:00
6:28 AM,66.2,64.4,94,30.06,2.5,SE,8.1,-,0.01,Rain,Light Rain,140,2013-07-31 10:28:00
6:54 AM,66.0,64.0,93,30.05,2.0,SE,5.8,-,0.02,Rain,Light Rain,140,2013-07-31 10:54:00
7:54 AM,66.0,64.0,93,30.04,2.5,SSE,8.1,-,0.01,Rain,Light Rain,150,2013-07-31 11:54:00
8:03 AM,66.2,64.4,94,30.05,5.0,SSE,6.9,-,0.00,,Overcast,150,2013-07-31 12:03:00
8:54 AM,66.0,64.0,93,30.05,4.0,South,8.1,-,0.00,,Overcast,180,2013-07-31 12:54:00
9:54 AM,66.9,64.0,90,30.04,8.0,South,9.2,-,0.00,,Overcast,190,2013-07-31 13:54:00
10:09 AM,66.2,64.4,94,30.05,10.0,South,8.1,-,N/A,,Overcast,190,2013-07-31 14:09:00
10:54 AM,66.9,64.0,90,30.03,9.0,South,6.9,-,N/A,,Overcast,190,2013-07-31 14:54:00
11:54 AM,68.0,64.0,87,30.02,10.0,South,4.6,-,N/A,,Overcast,190,2013-07-31 15:54:00
12:54 PM,68.0,64.9,90,30.02,10.0,SSW,5.8,-,N/A,,Overcast,210,2013-07-31 16:54:00
1:54 PM,68.0,64.9,90,30.01,9.0,WSW,5.8,-,N/A,,Overcast,240,2013-07-31 17:54:00
2:13 PM,68.0,66.2,94,30.01,1.0,SW,4.6,-,0.01,Rain,Rain,230,2013-07-31 18:13:00
2:29 PM,68.0,66.2,94,30.01,3.0,SW,3.5,-,0.09,Rain,Light Rain,230,2013-07-31 18:29:00
2:54 PM,69.1,66.0,90,29.99,9.0,SW,3.5,-,0.09,,Overcast,220,2013-07-31 18:54:00
3:22 PM,69.8,64.4,83,30.00,9.0,West,4.6,-,N/A,,Overcast,270,2013-07-31 19:22:00
3:28 PM,69.8,66.2,88,30.00,9.0,West,4.6,-,N/A,,Overcast,270,2013-07-31 19:28:00
3:54 PM,70.0,66.0,87,29.98,8.0,West,5.8,-,N/A,,Overcast,260,2013-07-31 19:54:00
4:54 PM,70.0,66.0,87,29.97,6.0,West,3.5,-,N/A,,Overcast,270,2013-07-31 20:54:00
5:00 PM,69.8,66.2,88,29.98,6.0,West,5.8,-,N/A,,Overcast,280,2013-07-31 21:00:00
5:18 PM,69.8,66.2,88,29.98,1.8,West,6.9,-,0.00,Rain,Light Rain,270,2013-07-31 21:18:00
5:46 PM,68.0,66.2,94,29.98,2.0,West,5.8,-,0.01,Rain,Light Rain,280,2013-07-31 21:46:00
5:54 PM,68.0,66.0,93,29.97,2.0,West,6.9,-,0.01,Rain,Light Rain,280,2013-07-31 21:54:00
6:01 PM,68.0,66.2,94,29.97,3.0,WNW,6.9,-,0.00,Rain,Light Rain,290,2013-07-31 22:01:00
6:20 PM,68.0,66.2,94,29.97,2.5,West,6.9,-,0.00,,Overcast,280,2013-07-31 22:20:00
6:31 PM,69.8,66.2,88,29.97,4.0,West,5.8,-,0.00,,Overcast,280,2013-07-31 22:31:00
6:54 PM,68.0,64.9,90,29.96,4.0,WNW,9.2,-,0.00,,Overcast,300,2013-07-31 22:54:00
7:54 PM,68.0,64.9,90,29.96,5.0,NW,8.1,-,N/A,,Overcast,310,2013-07-31 23:54:00
8:39 PM,66.2,64.4,94,29.98,6.0,NW,5.8,-,N/A,,Overcast,320,2013-08-01 00:39:00
8:54 PM,66.9,64.0,90,29.97,5.0,WNW,4.6,-,N/A,,Overcast,300,2013-08-01 00:54:00
9:47 PM,64.4,62.6,94,29.98,5.0,NNW,3.5,-,N/A,,Mostly Cloudy,330,2013-08-01 01:47:00
9:54 PM,64.9,63.0,93,29.97,5.0,NW,4.6,-,N/A,,Mostly Cloudy,320,2013-08-01 01:54:00
10:01 PM,64.4,62.6,94,29.98,5.0,WNW,5.8,-,N/A,,Scattered Clouds,300,2013-08-01 02:01:00
10:54 PM,63.0,62.1,97,29.97,2.5,West,3.5,-,N/A,,Clear,260,2013-08-01 02:54:00
11:16 PM,62.6,60.8,94,29.98,1.5,Calm,Calm,-,N/A,,Partly Cloudy,0,2013-08-01 03:16:00
11:54 PM,63.0,62.1,97,29.97,2.5,Calm,Calm,-,0.00,Rain,Light Rain,0,2013-08-01 03:54:00